Regional Weather Roundup
Issued by NWS

Home | Current Version | Previous Version | Graphics & Text | Print | Product List | Glossary On
Versions: 1 2 3 4 5 6 7 8 9 10 11 12 13 14 15 16 17 18 19 20 21 22 23 24 25 26 27 28 29 30 31 32 33 34 35 36 37 38 39 40 41 42 43 44 45 46 47 48 49 50
000
ASUS43 KLSX 210307
RWRMO

WEATHER SUMMARY FOR MISSOURI
NATIONAL WEATHER SERVICE SPRINGFIELD MO
1000 PM CDT MON OCT 20 2014

NOTE: "FAIR" INDICATES FEW OR NO CLOUDS BELOW 12,000 FEET WITH NO
       SIGNIFICANT WEATHER AND/OR OBSTRUCTIONS TO VISIBILITY.
       CURRENT SKY AND/OR WEATHER CONDITIONS ARE NOT AVAILABLE FOR
       CHILLICOTHE AND FARMINGTON.

MOZ001>031-035>038-043-044-053-054-210400-
...NORTHERN AND WESTERN MISSOURI...

CITY           SKY/WX    TMP DP  RH WIND       PRES   REMARKS
KANSAS CTY INT CLEAR     61  42  49 E3        30.06R
KANSAS C DTWN  CLEAR     56  49  77 CALM      30.06R
LEE`S SUMMIT   CLEAR     57  44  62 CALM      30.07R
ST JOSEPH      CLEAR     47  43  86 CALM      30.07R
CHILLICOTHE      N/A     49  45  86 CALM      30.07R
KIRKSVILLE     CLEAR     45  43  93 W3        30.05R

$$
MOZ066>068-077>081-088>096-101>105-210400-
...SOUTHWEST MISSOURI...

CITY           SKY/WX    TMP DP  RH WIND       PRES   REMARKS
SPRINGFIELD    CLEAR     55  51  86 CALM      30.06R
JOPLIN         CLEAR     58  55  90 CALM      30.07R

$$
MOZ032>034-039>042-045>050-055>058-069>072-210400-
...CENTRAL MISSOURI...

CITY           SKY/WX    TMP DP  RH WIND       PRES   REMARKS
COLUMBIA       CLEAR     58  43  57 N7        30.05R
JEFFERSON CITY CLEAR     51  44  77 NW3       30.05R
ROLLA          CLEAR     50  42  74 CALM      30.04R
SEDALIA        CLEAR     61  42  49 NW3       30.07R
WHITEMAN AFB   CLEAR     53  46  77 CALM      30.04S
OSAGE BEACH    CLEAR     52  45  76 CALM      30.06R

$$
MOZ051-052-059>065-210400-
...EAST CENTRAL MISSOURI...

CITY           SKY/WX    TMP DP  RH WIND       PRES   REMARKS
ST LOUIS INTL  CLEAR     57  44  62 CALM      30.03R
SPIRIT OF STL  CLEAR     48  46  93 CALM      30.03R
ST CHARLES     CLEAR     52  47  83 W5        30.02R

$$
MOZ072>076-082>087-097>100-106>115-210400-
...SOUTH CENTRAL AND SOUTHEAST MISSOURI...

CITY           SKY/WX    TMP DP  RH WIND       PRES   REMARKS
CAPE GIRARDEAU CLEAR     54  52  93 CALM      30.02R
FARMINGTON     CLEAR     55  43  62 CALM      30.06R
WEST PLAINS    CLEAR     56  54  93 SW3       30.06R

$$


USA.gov is the U.S. government's official web portal to all federal, state and local government web resources and services.